PROFILE

 METAR AND TAF INFORMATION
ADDS - METARS form results

(1115 UTC 15 May 2021)
http://aviationweather.gov/metar/data/
 
LFBD 151100Z AUTO 29008KT 8000 -RA BKN008/// BKN026/// BKN037/// ///TCU 14/13 Q1011 TEMPO 4000 RA OVC005
LFBD 151030Z AUTO 28009KT 7000 RA BKN008/// BKN015/// BKN032/// ///TCU 14/13 Q1011 TEMPO 4000 RA OVC005
TAF LFBD 150500Z 1506/1612 26008KT 9999 -RA BKN015 TX13/1514Z TN12/1506Z PROB40 1506/1610 4000 RA OVC005 BECMG 1610/1612 25015G25KT NSW 

 AIRPORT MAP

 RUNWAY INFORMATION
Runway 05 Runway length 10171 ft Runway width 148 ft
Runway elevation 160 ft Runway displaced threshold 0 ft Runway heading 46
Runway 23 Runway length 10171 ft Runway width 148 ft
Runway elevation 151 ft Runway displaced threshold 0 ft Runway heading 226
Runway 11 Runway length 7923 ft Runway width 148 ft
Runway elevation 153 ft Runway displaced threshold 0 ft Runway heading 107
Runway 29 Runway length 7923 ft Runway width 148 ft
Runway elevation 160 ft Runway displaced threshold 0 ft Runway heading 287

 AIRPORT FREQUENCIES
Type APP Name AQUITAINE Frequency 118.6 MHZ
Type ARR Name APP Frequency 121.2 MHZ
Type ATIS Name ATIS Frequency 131.15 MHZ
Type GND Name GND Frequency 121.9 MHZ
Type INFO Name AQUITAINE Frequency 120.575 MHZ
Type OPS Name OPNS Frequency 143.175 MHZ
Type TWR Name TWR Frequency 118.3 MHZ

 AIRPORT NEAR NAVIGATION AIDS
Type NDB Name Bordeaux Frequency 393 KHZ
Type TACAN Name Bordeaux Frequency 114400 KHZ
Type NDB Name Bordeaux Frequency 318 KHZ
Type VOR-DME Name Bordeaux Frequency 113750 KHZ
Type NDB Name Bordeaux Frequency 361 KHZ